owner,sensor,date,latitude,longitude,vertical_datum,sea_water_practical_salinity,qcFlag 
DISL,ioos:station:DISL:MHPA:1,2016-01-01T00:00:00Z,30.6671,-87.9365,1.1,0.1,11111222 
DISL,ioos:station:DISL:MHPA:1,2016-01-01T00:30:00Z,30.6671,-87.9365,1.1,0.1,11111222 
DISL,ioos:station:DISL:MHPA:1,2016-01-01T01:00:00Z,30.6671,-87.9365,1.1,0.1,11111222 
DISL,ioos:station:DISL:MHPA:1,2016-01-01T01:30:00Z,30.6671,-87.9365,1.1,0.1,11111222 
DISL,ioos:station:DISL:MHPA:1,2016-01-01T02:00:00Z,30.6671,-87.9365,1.1,0.1,11111222 
DISL,ioos:station:DISL:MHPA:1,2016-01-01T02:30:00Z,30.6671,-87.9365,1.1,0.1,11111222 
DISL,ioos:station:DISL:MHPA:1,2016-01-01T03:00:00Z,30.6671,-87.9365,1.1,0.1,11111222 
DISL,ioos:station:DISL:MHPA:1,2016-01-01T03:30:00Z,30.6671,-87.9365,1.1,0.1,11111222 
DISL,ioos:station:DISL:MHPA:1,2016-01-01T04:00:00Z,30.6671,-87.9365,1.0,0.1,11111222 
DISL,ioos:station:DISL:MHPA:1,2016-01-01T04:30:00Z,30.6671,-87.9365,1.0,0.1,11111222 
DISL,ioos:station:DISL:MHPA:1,2016-01-01T05:00:00Z,30.6671,-87.9365,1.0,0.1,11111222 
DISL,ioos:station:DISL:MHPA:1,2016-01-01T05:30:00Z,30.6671,-87.9365,1.0,0.1,11111222 
DISL,ioos:station:DISL:MHPA:1,2016-01-01T06:30:00Z,30.6671,-87.9365,0.996,0.12,1111122 
DISL,ioos:station:DISL:MHPA:1,2016-01-01T07:00:00Z,30.6671,-87.9365,1.016,0.12,1111122 
DISL,ioos:station:DISL:MHPA:1,2016-01-01T07:30:00Z,30.6671,-87.9365,1.033,0.11,1111122 
DISL,ioos:station:DISL:MHPA:1,2016-01-01T08:00:00Z,30.6671,-87.9365,1.059,0.11,1111122 
DISL,ioos:station:DISL:MHPA:1,2016-01-01T08:30:00Z,30.6671,-87.9365,1.063,0.11,1111122 
DISL,ioos:station:DISL:MHPA:1,2016-01-01T09:00:00Z,30.6671,-87.9365,1.044,0.11,1111122 
DISL,ioos:station:DISL:MHPA:1,2016-01-01T09:30:00Z,30.6671,-87.9365,1.028,0.11,1111122 
DISL,ioos:station:DISL:MHPA:1,2016-01-01T10:00:00Z,30.6671,-87.9365,1.022,0.11,1111122 
DISL,ioos:station:DISL:MHPA:1,2016-01-01T10:30:00Z,30.6671,-87.9365,1.006,0.11,1111122 
DISL,ioos:station:DISL:MHPA:1,2016-01-01T11:00:00Z,30.6671,-87.9365,0.987,0.11,1111122 
DISL,ioos:station:DISL:MHPA:1,2016-01-01T11:30:00Z,30.6671,-87.9365,0.967,0.12,1111122 
DISL,ioos:station:DISL:MHPA:1,2016-01-01T12:00:00Z,30.6671,-87.9365,0.948,0.12,1111122 
DISL,ioos:station:DISL:MHPA:1,2016-01-01T12:30:00Z,30.6671,-87.9365,0.93,0.12,1111122 
DISL,ioos:station:DISL:MHPA:1,2016-01-01T13:00:00Z,30.6671,-87.9365,0.903,0.11,1111122 
DISL,ioos:station:DISL:MHPA:1,2016-01-01T13:30:00Z,30.6671,-87.9365,0.887,0.11,1111122 
DISL,ioos:station:DISL:MHPA:1,2016-01-01T14:00:00Z,30.6671,-87.9365,0.863,0.11,1111122 
DISL,ioos:station:DISL:MHPA:1,2016-01-01T14:30:00Z,30.6671,-87.9365,0.839,0.11,1111122 
DISL,ioos:station:DISL:MHPA:1,2016-01-01T15:00:00Z,30.6671,-87.9365,0.839,0.11,1111122 
DISL,ioos:station:DISL:MHPA:1,2016-01-01T15:30:00Z,30.6671,-87.9365,0.867,0.11,1111122 
DISL,ioos:station:DISL:MHPA:1,2016-01-01T16:00:00Z,30.6671,-87.9365,0.885,0.11,1111122 
DISL,ioos:station:DISL:MHPA:1,2016-01-01T16:30:00Z,30.6671,-87.9365,0.885,0.11,1111122 
DISL,ioos:station:DISL:MHPA:1,2016-01-01T17:00:00Z,30.6671,-87.9365,0.884,0.11,1111122 
DISL,ioos:station:DISL:MHPA:1,2016-01-01T17:30:00Z,30.6671,-87.9365,0.887,0.11,1111122 
DISL,ioos:station:DISL:MHPA:1,2016-01-01T18:00:00Z,30.6671,-87.9365,0.868,0.11,1111122 
DISL,ioos:station:DISL:MHPA:1,2016-01-01T18:30:00Z,30.6671,-87.9365,0.835,0.11,1111122 
DISL,ioos:station:DISL:MHPA:1,2016-01-01T19:00:00Z,30.6671,-87.9365,0.813,0.11,1111122 
DISL,ioos:station:DISL:MHPA:1,2016-01-01T19:30:00Z,30.6671,-87.9365,0.814,0.11,1111122 
DISL,ioos:station:DISL:MHPA:1,2016-01-01T20:00:00Z,30.6671,-87.9365,0.827,0.1,1111122 
DISL,ioos:station:DISL:MHPA:1,2016-01-01T20:30:00Z,30.6671,-87.9365,0.836,0.1,1111122 
DISL,ioos:station:DISL:MHPA:1,2016-01-01T21:00:00Z,30.6671,-87.9365,0.953,0.1,1111122 
DISL,ioos:station:DISL:MHPA:1,2016-01-01T21:30:00Z,30.6671,-87.9365,1.056,0.1,1111122 
DISL,ioos:station:DISL:MHPA:1,2016-01-01T22:00:00Z,30.6671,-87.9365,1.062,0.1,1111122 
DISL,ioos:station:DISL:MHPA:1,2016-01-01T22:30:00Z,30.6671,-87.9365,1.037,0.11,1111122 
DISL,ioos:station:DISL:MHPA:1,2016-01-01T23:00:00Z,30.6671,-87.9365,1.008,0.11,1111122 
DISL,ioos:station:DISL:MHPA:1,2016-01-01T23:30:00Z,30.6671,-87.9365,0.979,0.11,1111122 
DISL,ioos:station:DISL:MHPA:1,2016-01-02T00:00:00Z,30.6671,-87.9365,0.947,0.11,1111122 
DISL,ioos:station:DISL:MHPA:1,2016-01-02T00:30:00Z,30.6671,-87.9365,0.931,0.11,1111122 
DISL,ioos:station:DISL:MHPA:1,2016-01-02T01:00:00Z,30.6671,-87.9365,0.925,0.11,1111122 
DISL,ioos:station:DISL:MHPA:1,2016-01-02T01:30:00Z,30.6671,-87.9365,0.915,0.11,1111122 
DISL,ioos:station:DISL:MHPA:1,2016-01-02T02:00:00Z,30.6671,-87.9365,0.918,0.11,1111122 
DISL,ioos:station:DISL:MHPA:1,2016-01-02T02:30:00Z,30.6671,-87.9365,0.941,0.11,1111122 
DISL,ioos:station:DISL:MHPA:1,2016-01-02T03:00:00Z,30.6671,-87.9365,0.955,0.11,1111122 
DISL,ioos:station:DISL:MHPA:1,2016-01-02T03:30:00Z,30.6671,-87.9365,0.973,0.1,1111122 
DISL,ioos:station:DISL:MHPA:1,2016-01-02T04:00:00Z,30.6671,-87.9365,0.976,0.11,1111122 
DISL,ioos:station:DISL:MHPA:1,2016-01-02T04:30:00Z,30.6671,-87.9365,0.972,0.11,1111122 
DISL,ioos:station:DISL:MHPA:1,2016-01-02T05:00:00Z,30.6671,-87.9365,0.959,0.11,1111122 
DISL,ioos:station:DISL:MHPA:1,2016-01-02T05:30:00Z,30.6671,-87.9365,0.956,0.11,1111122 
DISL,ioos:station:DISL:MHPA:1,2016-01-02T06:00:00Z,30.6671,-87.9365,0.958,0.11,1111122 
DISL,ioos:station:DISL:MHPA:1,2016-01-02T06:30:00Z,30.6671,-87.9365,0.962,0.11,1111122 
DISL,ioos:station:DISL:MHPA:1,2016-01-02T07:00:00Z,30.6671,-87.9365,0.967,0.11,1111122 
DISL,ioos:station:DISL:MHPA:1,2016-01-02T07:30:00Z,30.6671,-87.9365,0.976,0.11,1111122 
DISL,ioos:station:DISL:MHPA:1,2016-01-02T08:00:00Z,30.6671,-87.9365,0.973,0.11,1111122 
DISL,ioos:station:DISL:MHPA:1,2016-01-02T08:30:00Z,30.6671,-87.9365,0.967,0.11,1111122 
DISL,ioos:station:DISL:MHPA:1,2016-01-02T09:00:00Z,30.6671,-87.9365,0.965,0.11,1111122 
DISL,ioos:station:DISL:MHPA:1,2016-01-02T09:30:00Z,30.6671,-87.9365,0.97,0.11,1111122 
DISL,ioos:station:DISL:MHPA:1,2016-01-02T10:00:00Z,30.6671,-87.9365,0.974,0.11,1111122 
DISL,ioos:station:DISL:MHPA:1,2016-01-02T10:30:00Z,30.6671,-87.9365,0.97,0.11,1111122 
DISL,ioos:station:DISL:MHPA:1,2016-01-02T11:00:00Z,30.6671,-87.9365,0.962,0.11,1111122 
DISL,ioos:station:DISL:MHPA:1,2016-01-02T11:30:00Z,30.6671,-87.9365,0.951,0.11,1111122 
DISL,ioos:station:DISL:MHPA:1,2016-01-02T12:00:00Z,30.6671,-87.9365,0.935,0.11,1111122 
DISL,ioos:station:DISL:MHPA:1,2016-01-02T12:30:00Z,30.6671,-87.9365,0.923,0.11,1111122 
DISL,ioos:station:DISL:MHPA:1,2016-01-02T13:00:00Z,30.6671,-87.9365,0.908,0.11,1111122 
DISL,ioos:station:DISL:MHPA:1,2016-01-02T13:30:00Z,30.6671,-87.9365,0.892,0.11,1111122 
DISL,ioos:station:DISL:MHPA:1,2016-01-02T14:00:00Z,30.6671,-87.9365,0.88,0.11,1111122 
DISL,ioos:station:DISL:MHPA:1,2016-01-02T14:30:00Z,30.6671,-87.9365,0.865,0.11,1111122 
DISL,ioos:station:DISL:MHPA:1,2016-01-02T15:00:00Z,30.6671,-87.9365,0.856,0.11,1111122 
DISL,ioos:station:DISL:MHPA:1,2016-01-02T15:30:00Z,30.6671,-87.9365,0.851,0.11,1111122 
DISL,ioos:station:DISL:MHPA:1,2016-01-02T16:00:00Z,30.6671,-87.9365,0.851,0.11,1111122 
DISL,ioos:station:DISL:MHPA:1,2016-01-02T16:30:00Z,30.6671,-87.9365,0.859,0.11,1111122 
DISL,ioos:station:DISL:MHPA:1,2016-01-02T17:00:00Z,30.6671,-87.9365,0.877,0.11,1111122 
DISL,ioos:station:DISL:MHPA:1,2016-01-02T17:30:00Z,30.6671,-87.9365,0.89,0.11,1111122 
DISL,ioos:station:DISL:MHPA:1,2016-01-02T18:00:00Z,30.6671,-87.9365,0.899,0.11,1111122 
DISL,ioos:station:DISL:MHPA:1,2016-01-02T18:30:00Z,30.6671,-87.9365,0.913,0.11,1111122 
DISL,ioos:station:DISL:MHPA:1,2016-01-02T19:00:00Z,30.6671,-87.9365,0.942,0.11,1111122 
DISL,ioos:station:DISL:MHPA:1,2016-01-02T19:30:00Z,30.6671,-87.9365,0.949,0.11,1111122 
DISL,ioos:station:DISL:MHPA:1,2016-01-02T20:00:00Z,30.6671,-87.9365,0.957,0.11,1111122 
DISL,ioos:station:DISL:MHPA:1,2016-01-02T20:30:00Z,30.6671,-87.9365,0.979,0.1,1111122 
DISL,ioos:station:DISL:MHPA:1,2016-01-02T21:00:00Z,30.6671,-87.9365,0.993,0.11,1111122 
DISL,ioos:station:DISL:MHPA:1,2016-01-02T21:30:00Z,30.6671,-87.9365,1.023,0.11,1111122 
DISL,ioos:station:DISL:MHPA:1,2016-01-02T22:00:00Z,30.6671,-87.9365,1.064,0.11,1111122 
DISL,ioos:station:DISL:MHPA:1,2016-01-02T22:30:00Z,30.6671,-87.9365,1.092,0.1,1111122 
DISL,ioos:station:DISL:MHPA:1,2016-01-02T23:00:00Z,30.6671,-87.9365,1.122,0.1,1111122 
DISL,ioos:station:DISL:MHPA:1,2016-01-02T23:30:00Z,30.6671,-87.9365,1.134,0.1,1111122 
DISL,ioos:station:DISL:MHPA:1,2016-01-03T00:00:00Z,30.6671,-87.9365,1.159,0.1,1111122 
DISL,ioos:station:DISL:MHPA:1,2016-01-03T00:30:00Z,30.6671,-87.9365,1.157,0.1,1111122 
DISL,ioos:station:DISL:MHPA:1,2016-01-03T01:00:00Z,30.6671,-87.9365,1.169,0.09,1111122 
DISL,ioos:station:DISL:MHPA:1,2016-01-03T01:30:00Z,30.6671,-87.9365,1.194,0.09,1111122 
DISL,ioos:station:DISL:MHPA:1,2016-01-03T02:00:00Z,30.6671,-87.9365,1.176,0.09,1111122 
DISL,ioos:station:DISL:MHPA:1,2016-01-03T02:30:00Z,30.6671,-87.9365,1.167,0.09,1111122 
DISL,ioos:station:DISL:MHPA:1,2016-01-03T03:00:00Z,30.6671,-87.9365,1.174,0.09,1111122 
DISL,ioos:station:DISL:MHPA:1,2016-01-03T03:30:00Z,30.6671,-87.9365,1.176,0.09,1111122 
DISL,ioos:station:DISL:MHPA:1,2016-01-03T04:00:00Z,30.6671,-87.9365,1.175,0.09,1111122 
DISL,ioos:station:DISL:MHPA:1,2016-01-03T04:30:00Z,30.6671,-87.9365,1.188,0.09,1111122 
DISL,ioos:station:DISL:MHPA:1,2016-01-03T05:00:00Z,30.6671,-87.9365,1.181,0.09,1111122 
DISL,ioos:station:DISL:MHPA:1,2016-01-03T05:30:00Z,30.6671,-87.9365,1.154,0.09,1111122 
DISL,ioos:station:DISL:MHPA:1,2016-01-03T06:00:00Z,30.6671,-87.9365,1.143,0.09,1111122 
DISL,ioos:station:DISL:MHPA:1,2016-01-03T06:30:00Z,30.6671,-87.9365,1.145,0.09,1111122 
DISL,ioos:station:DISL:MHPA:1,2016-01-03T07:00:00Z,30.6671,-87.9365,1.124,0.09,1111122 
DISL,ioos:station:DISL:MHPA:1,2016-01-03T07:30:00Z,30.6671,-87.9365,1.105,0.1,1111122 
DISL,ioos:station:DISL:MHPA:1,2016-01-03T08:00:00Z,30.6671,-87.9365,1.093,0.09,1111122 
DISL,ioos:station:DISL:MHPA:1,2016-01-03T08:30:00Z,30.6671,-87.9365,1.078,0.09,1111122 
DISL,ioos:station:DISL:MHPA:1,2016-01-03T09:00:00Z,30.6671,-87.9365,1.06,0.09,1111122 
DISL,ioos:station:DISL:MHPA:1,2016-01-03T09:30:00Z,30.6671,-87.9365,1.052,0.09,1111122 
DISL,ioos:station:DISL:MHPA:1,2016-01-03T10:00:00Z,30.6671,-87.9365,1.049,0.09,1111122 
DISL,ioos:station:DISL:MHPA:1,2016-01-03T10:30:00Z,30.6671,-87.9365,1.052,0.09,1111122 
DISL,ioos:station:DISL:MHPA:1,2016-01-03T11:00:00Z,30.6671,-87.9365,1.051,0.09,1111122 
DISL,ioos:station:DISL:MHPA:1,2016-01-03T11:30:00Z,30.6671,-87.9365,1.042,0.09,1111122 
DISL,ioos:station:DISL:MHPA:1,2016-01-03T12:00:00Z,30.6671,-87.9365,1.035,0.1,1111122 
DISL,ioos:station:DISL:MHPA:1,2016-01-03T12:30:00Z,30.6671,-87.9365,1.033,0.1,1111122 
DISL,ioos:station:DISL:MHPA:1,2016-01-03T13:00:00Z,30.6671,-87.9365,1.026,0.1,1111122 
DISL,ioos:station:DISL:MHPA:1,2016-01-03T13:30:00Z,30.6671,-87.9365,1.018,0.1,1111122 
DISL,ioos:station:DISL:MHPA:1,2016-01-03T14:00:00Z,30.6671,-87.9365,1.01,0.1,1111122 
DISL,ioos:station:DISL:MHPA:1,2016-01-03T14:30:00Z,30.6671,-87.9365,1.014,0.1,1111122 
DISL,ioos:station:DISL:MHPA:1,2016-01-03T15:00:00Z,30.6671,-87.9365,1.025,0.1,1111122 
DISL,ioos:station:DISL:MHPA:1,2016-01-03T15:30:00Z,30.6671,-87.9365,1.028,0.1,1111122 
DISL,ioos:station:DISL:MHPA:1,2016-01-03T16:00:00Z,30.6671,-87.9365,1.043,0.1,1111122 
DISL,ioos:station:DISL:MHPA:1,2016-01-03T16:30:00Z,30.6671,-87.9365,1.07,0.1,1111122 
DISL,ioos:station:DISL:MHPA:1,2016-01-03T17:00:00Z,30.6671,-87.9365,1.095,0.09,1111122 
DISL,ioos:station:DISL:MHPA:1,2016-01-03T17:30:00Z,30.6671,-87.9365,1.117,0.09,1111122 
DISL,ioos:station:DISL:MHPA:1,2016-01-03T18:00:00Z,30.6671,-87.9365,1.132,0.09,1111122 
DISL,ioos:station:DISL:MHPA:1,2016-01-03T18:30:00Z,30.6671,-87.9365,1.147,0.09,1111122 
DISL,ioos:station:DISL:MHPA:1,2016-01-03T19:00:00Z,30.6671,-87.9365,1.151,0.09,1111122 
DISL,ioos:station:DISL:MHPA:1,2016-01-03T19:30:00Z,30.6671,-87.9365,1.155,0.09,1111122 
DISL,ioos:station:DISL:MHPA:1,2016-01-03T20:00:00Z,30.6671,-87.9365,1.184,0.09,1111122 
DISL,ioos:station:DISL:MHPA:1,2016-01-03T20:30:00Z,30.6671,-87.9365,1.197,0.09,1111122 
DISL,ioos:station:DISL:MHPA:1,2016-01-03T21:00:00Z,30.6671,-87.9365,1.207,0.09,1111122 
DISL,ioos:station:DISL:MHPA:1,2016-01-03T21:30:00Z,30.6671,-87.9365,1.22,0.09,1111122 
DISL,ioos:station:DISL:MHPA:1,2016-01-03T22:00:00Z,30.6671,-87.9365,1.241,0.09,1111122 
DISL,ioos:station:DISL:MHPA:1,2016-01-03T22:30:00Z,30.6671,-87.9365,1.276,0.09,1111122 
DISL,ioos:station:DISL:MHPA:1,2016-01-03T23:00:00Z,30.6671,-87.9365,1.281,0.09,1111122 
DISL,ioos:station:DISL:MHPA:1,2016-01-03T23:30:00Z,30.6671,-87.9365,1.3,0.09,1111122 
DISL,ioos:station:DISL:MHPA:1,2016-01-04T00:00:00Z,30.6671,-87.9365,1.306,0.09,1111122 
DISL,ioos:station:DISL:MHPA:1,2016-01-04T00:30:00Z,30.6671,-87.9365,1.303,0.09,1111122 
DISL,ioos:station:DISL:MHPA:1,2016-01-04T01:00:00Z,30.6671,-87.9365,1.3,0.09,1111122 
DISL,ioos:station:DISL:MHPA:1,2016-01-04T01:30:00Z,30.6671,-87.9365,1.312,0.09,1111122 
DISL,ioos:station:DISL:MHPA:1,2016-01-04T02:00:00Z,30.6671,-87.9365,1.3,0.09,1111122 
DISL,ioos:station:DISL:MHPA:1,2016-01-04T02:30:00Z,30.6671,-87.9365,1.293,0.09,1111122 
DISL,ioos:station:DISL:MHPA:1,2016-01-04T03:00:00Z,30.6671,-87.9365,1.262,0.09,1111122 
DISL,ioos:station:DISL:MHPA:1,2016-01-04T03:30:00Z,30.6671,-87.9365,1.223,0.09,1111122 
DISL,ioos:station:DISL:MHPA:1,2016-01-04T04:00:00Z,30.6671,-87.9365,1.207,0.09,1111122 
DISL,ioos:station:DISL:MHPA:1,2016-01-04T04:30:00Z,30.6671,-87.9365,1.189,0.09,1111122 
DISL,ioos:station:DISL:MHPA:1,2016-01-04T05:00:00Z,30.6671,-87.9365,1.172,0.09,1111122 
DISL,ioos:station:DISL:MHPA:1,2016-01-04T05:30:00Z,30.6671,-87.9365,1.163,0.09,1111122 
DISL,ioos:station:DISL:MHPA:1,2016-01-04T06:00:00Z,30.6671,-87.9365,1.161,0.09,1111122 
DISL,ioos:station:DISL:MHPA:1,2016-01-04T06:30:00Z,30.6671,-87.9365,1.143,0.09,1111122 
DISL,ioos:station:DISL:MHPA:1,2016-01-04T07:00:00Z,30.6671,-87.9365,1.106,0.09,1111122 
DISL,ioos:station:DISL:MHPA:1,2016-01-04T07:30:00Z,30.6671,-87.9365,1.079,0.09,1111122 
DISL,ioos:station:DISL:MHPA:1,2016-01-04T08:00:00Z,30.6671,-87.9365,1.067,0.09,1111122 
DISL,ioos:station:DISL:MHPA:1,2016-01-04T08:30:00Z,30.6671,-87.9365,1.047,0.09,1111122 
DISL,ioos:station:DISL:MHPA:1,2016-01-04T09:00:00Z,30.6671,-87.9365,1.026,0.09,1111122 
DISL,ioos:station:DISL:MHPA:1,2016-01-04T09:30:00Z,30.6671,-87.9365,1.005,0.09,1111122 
DISL,ioos:station:DISL:MHPA:1,2016-01-04T10:00:00Z,30.6671,-87.9365,0.988,0.09,1111122 
DISL,ioos:station:DISL:MHPA:1,2016-01-04T10:30:00Z,30.6671,-87.9365,0.967,0.09,1111122 
DISL,ioos:station:DISL:MHPA:1,2016-01-04T11:00:00Z,30.6671,-87.9365,0.951,0.09,1111122 
DISL,ioos:station:DISL:MHPA:1,2016-01-04T11:30:00Z,30.6671,-87.9365,0.948,0.09,1111122 
DISL,ioos:station:DISL:MHPA:1,2016-01-04T12:00:00Z,30.6671,-87.9365,0.948,0.09,1111122 
DISL,ioos:station:DISL:MHPA:1,2016-01-04T12:30:00Z,30.6671,-87.9365,0.95,0.09,1111122 
DISL,ioos:station:DISL:MHPA:1,2016-01-04T13:00:00Z,30.6671,-87.9365,0.963,0.09,1111122 
DISL,ioos:station:DISL:MHPA:1,2016-01-04T13:30:00Z,30.6671,-87.9365,0.969,0.09,1111122 
DISL,ioos:station:DISL:MHPA:1,2016-01-04T14:00:00Z,30.6671,-87.9365,0.967,0.09,1111122 
DISL,ioos:station:DISL:MHPA:1,2016-01-04T14:30:00Z,30.6671,-87.9365,0.967,0.09,1111122 
DISL,ioos:station:DISL:MHPA:1,2016-01-04T15:00:00Z,30.6671,-87.9365,0.964,0.09,1111122 
DISL,ioos:station:DISL:MHPA:1,2016-01-04T15:30:00Z,30.6671,-87.9365,0.96,0.09,1111122 
DISL,ioos:station:DISL:MHPA:1,2016-01-04T16:00:00Z,30.6671,-87.9365,0.962,0.09,1111122 
DISL,ioos:station:DISL:MHPA:1,2016-01-04T16:30:00Z,30.6671,-87.9365,0.972,0.09,1111122 
DISL,ioos:station:DISL:MHPA:1,2016-01-04T17:00:00Z,30.6671,-87.9365,0.991,0.09,1111122 
DISL,ioos:station:DISL:MHPA:1,2016-01-04T17:30:00Z,30.6671,-87.9365,1.024,0.09,1111122 
DISL,ioos:station:DISL:MHPA:1,2016-01-04T18:00:00Z,30.6671,-87.9365,1.045,0.09,1111122 
DISL,ioos:station:DISL:MHPA:1,2016-01-04T18:30:00Z,30.6671,-87.9365,1.048,0.09,1111122 
DISL,ioos:station:DISL:MHPA:1,2016-01-04T19:00:00Z,30.6671,-87.9365,1.059,0.09,1111122 
DISL,ioos:station:DISL:MHPA:1,2016-01-04T19:30:00Z,30.6671,-87.9365,1.053,0.09,1111122 
DISL,ioos:station:DISL:MHPA:1,2016-01-04T20:00:00Z,30.6671,-87.9365,1.044,0.09,1111122 
DISL,ioos:station:DISL:MHPA:1,2016-01-04T20:30:00Z,30.6671,-87.9365,1.043,0.09,1111122 
DISL,ioos:station:DISL:MHPA:1,2016-01-04T21:00:00Z,30.6671,-87.9365,1.048,0.09,1111122 
DISL,ioos:station:DISL:MHPA:1,2016-01-04T21:30:00Z,30.6671,-87.9365,1.065,0.09,1111122 
DISL,ioos:station:DISL:MHPA:1,2016-01-04T22:00:00Z,30.6671,-87.9365,1.086,0.09,1111122 
DISL,ioos:station:DISL:MHPA:1,2016-01-04T22:30:00Z,30.6671,-87.9365,1.097,0.09,1111122 
DISL,ioos:station:DISL:MHPA:1,2016-01-04T23:00:00Z,30.6671,-87.9365,1.116,0.09,1111122 
DISL,ioos:station:DISL:MHPA:1,2016-01-04T23:30:00Z,30.6671,-87.9365,1.131,0.09,1111122 
DISL,ioos:station:DISL:MHPA:1,2016-01-05T00:00:00Z,30.6671,-87.9365,1.125,0.09,1111122 
DISL,ioos:station:DISL:MHPA:1,2016-01-05T00:30:00Z,30.6671,-87.9365,1.123,0.09,1111122 
DISL,ioos:station:DISL:MHPA:1,2016-01-05T01:00:00Z,30.6671,-87.9365,1.114,0.09,1111122 
DISL,ioos:station:DISL:MHPA:1,2016-01-05T01:30:00Z,30.6671,-87.9365,1.093,0.09,1111122 
DISL,ioos:station:DISL:MHPA:1,2016-01-05T02:00:00Z,30.6671,-87.9365,1.076,0.09,1111122 
DISL,ioos:station:DISL:MHPA:1,2016-01-05T02:30:00Z,30.6671,-87.9365,1.069,0.09,1111122 
DISL,ioos:station:DISL:MHPA:1,2016-01-05T03:00:00Z,30.6671,-87.9365,1.054,0.09,1111122 
DISL,ioos:station:DISL:MHPA:1,2016-01-05T03:30:00Z,30.6671,-87.9365,1.039,0.09,1111122 
DISL,ioos:station:DISL:MHPA:1,2016-01-05T04:00:00Z,30.6671,-87.9365,1.031,0.09,1111122 
DISL,ioos:station:DISL:MHPA:1,2016-01-05T04:30:00Z,30.6671,-87.9365,1.02,0.09,1111122 
DISL,ioos:station:DISL:MHPA:1,2016-01-05T05:00:00Z,30.6671,-87.9365,1.007,0.09,1111122 
DISL,ioos:station:DISL:MHPA:1,2016-01-05T05:30:00Z,30.6671,-87.9365,0.999,0.09,1111122 
DISL,ioos:station:DISL:MHPA:1,2016-01-05T06:00:00Z,30.6671,-87.9365,0.995,0.09,1111122 
DISL,ioos:station:DISL:MHPA:1,2016-01-05T06:30:00Z,30.6671,-87.9365,0.997,0.09,1111122 
DISL,ioos:station:DISL:MHPA:1,2016-01-05T07:00:00Z,30.6671,-87.9365,0.99,0.09,1111122 
DISL,ioos:station:DISL:MHPA:1,2016-01-05T07:30:00Z,30.6671,-87.9365,0.974,0.09,1111122 
DISL,ioos:station:DISL:MHPA:1,2016-01-05T08:00:00Z,30.6671,-87.9365,0.967,0.09,1111122 
DISL,ioos:station:DISL:MHPA:1,2016-01-05T08:30:00Z,30.6671,-87.9365,0.97,0.09,1111122 
DISL,ioos:station:DISL:MHPA:1,2016-01-05T09:00:00Z,30.6671,-87.9365,0.981,0.09,1111122 
DISL,ioos:station:DISL:MHPA:1,2016-01-05T09:30:00Z,30.6671,-87.9365,0.987,0.09,1111122 
DISL,ioos:station:DISL:MHPA:1,2016-01-05T10:00:00Z,30.6671,-87.9365,0.987,0.09,1111122 
DISL,ioos:station:DISL:MHPA:1,2016-01-05T10:30:00Z,30.6671,-87.9365,0.985,0.09,1111122 
DISL,ioos:station:DISL:MHPA:1,2016-01-05T11:00:00Z,30.6671,-87.9365,0.981,0.09,1111122 
DISL,ioos:station:DISL:MHPA:1,2016-01-05T11:30:00Z,30.6671,-87.9365,0.983,0.09,1111122 
DISL,ioos:station:DISL:MHPA:1,2016-01-05T12:00:00Z,30.6671,-87.9365,0.993,0.09,1111122 
DISL,ioos:station:DISL:MHPA:1,2016-01-05T12:30:00Z,30.6671,-87.9365,1.0,0.09,1111122 
DISL,ioos:station:DISL:MHPA:1,2016-01-05T13:00:00Z,30.6671,-87.9365,0.997,0.09,1111122 
DISL,ioos:station:DISL:MHPA:1,2016-01-05T13:30:00Z,30.6671,-87.9365,0.983,0.09,1111122 
DISL,ioos:station:DISL:MHPA:1,2016-01-05T14:00:00Z,30.6671,-87.9365,0.974,0.09,1111122 
DISL,ioos:station:DISL:MHPA:1,2016-01-05T14:30:00Z,30.6671,-87.9365,0.97,0.09,1111122 
DISL,ioos:station:DISL:MHPA:1,2016-01-05T15:00:00Z,30.6671,-87.9365,0.967,0.09,1111122 
DISL,ioos:station:DISL:MHPA:1,2016-01-05T15:30:00Z,30.6671,-87.9365,0.957,0.09,1111122 
DISL,ioos:station:DISL:MHPA:1,2016-01-05T16:00:00Z,30.6671,-87.9365,0.961,0.09,1111122 
DISL,ioos:station:DISL:MHPA:1,2016-01-05T16:30:00Z,30.6671,-87.9365,0.98,0.09,1111122 
DISL,ioos:station:DISL:MHPA:1,2016-01-05T17:00:00Z,30.6671,-87.9365,1.005,0.09,1111122 
DISL,ioos:station:DISL:MHPA:1,2016-01-05T17:30:00Z,30.6671,-87.9365,1.019,0.09,1111122 
DISL,ioos:station:DISL:MHPA:1,2016-01-05T18:00:00Z,30.6671,-87.9365,1.036,0.09,1111122 
DISL,ioos:station:DISL:MHPA:1,2016-01-05T18:30:00Z,30.6671,-87.9365,1.066,0.09,1111122 
DISL,ioos:station:DISL:MHPA:1,2016-01-05T19:00:00Z,30.6671,-87.9365,1.091,0.09,1111122 
DISL,ioos:station:DISL:MHPA:1,2016-01-05T19:30:00Z,30.6671,-87.9365,1.115,0.09,1111122 
DISL,ioos:station:DISL:MHPA:1,2016-01-05T20:00:00Z,30.6671,-87.9365,1.133,0.09,1111122 
DISL,ioos:station:DISL:MHPA:1,2016-01-05T20:30:00Z,30.6671,-87.9365,1.141,0.09,1111122 
DISL,ioos:station:DISL:MHPA:1,2016-01-05T21:00:00Z,30.6671,-87.9365,1.166,0.09,1111122 
DISL,ioos:station:DISL:MHPA:1,2016-01-05T21:30:00Z,30.6671,-87.9365,1.204,0.09,1111122 
DISL,ioos:station:DISL:MHPA:1,2016-01-05T22:00:00Z,30.6671,-87.9365,1.232,0.09,1111122 
DISL,ioos:station:DISL:MHPA:1,2016-01-05T22:30:00Z,30.6671,-87.9365,1.246,0.09,1111122 
DISL,ioos:station:DISL:MHPA:1,2016-01-05T23:00:00Z,30.6671,-87.9365,1.282,0.09,1111122 
DISL,ioos:station:DISL:MHPA:1,2016-01-05T23:30:00Z,30.6671,-87.9365,1.295,0.09,1111122 
DISL,ioos:station:DISL:MHPA:1,2016-01-06T00:00:00Z,30.6671,-87.9365,1.305,0.09,1111122 
DISL,ioos:station:DISL:MHPA:1,2016-01-06T00:30:00Z,30.6671,-87.9365,1.341,0.09,1111122 
DISL,ioos:station:DISL:MHPA:1,2016-01-06T01:00:00Z,30.6671,-87.9365,1.346,0.09,1111122 
DISL,ioos:station:DISL:MHPA:1,2016-01-06T01:30:00Z,30.6671,-87.9365,1.347,0.09,1111122 
DISL,ioos:station:DISL:MHPA:1,2016-01-06T02:00:00Z,30.6671,-87.9365,1.36,0.09,1111122 
DISL,ioos:station:DISL:MHPA:1,2016-01-06T02:30:00Z,30.6671,-87.9365,1.377,0.09,1111122 
DISL,ioos:station:DISL:MHPA:1,2016-01-06T03:00:00Z,30.6671,-87.9365,1.371,0.09,1111122 
DISL,ioos:station:DISL:MHPA:1,2016-01-06T03:30:00Z,30.6671,-87.9365,1.369,0.09,1111122 
DISL,ioos:station:DISL:MHPA:1,2016-01-06T04:00:00Z,30.6671,-87.9365,1.365,0.08,1111122 
DISL,ioos:station:DISL:MHPA:1,2016-01-06T04:30:00Z,30.6671,-87.9365,1.341,0.08,1111122 
DISL,ioos:station:DISL:MHPA:1,2016-01-06T05:00:00Z,30.6671,-87.9365,1.348,0.09,1111122 
DISL,ioos:station:DISL:MHPA:1,2016-01-06T05:30:00Z,30.6671,-87.9365,1.316,0.09,1111122 
DISL,ioos:station:DISL:MHPA:1,2016-01-06T06:00:00Z,30.6671,-87.9365,1.277,0.09,1111122 
DISL,ioos:station:DISL:MHPA:1,2016-01-06T06:30:00Z,30.6671,-87.9365,1.244,0.09,1111122 
DISL,ioos:station:DISL:MHPA:1,2016-01-06T07:00:00Z,30.6671,-87.9365,1.23,0.08,1111122 
DISL,ioos:station:DISL:MHPA:1,2016-01-06T07:30:00Z,30.6671,-87.9365,1.213,0.09,1111122 
DISL,ioos:station:DISL:MHPA:1,2016-01-06T08:00:00Z,30.6671,-87.9365,1.191,0.09,1111122 
DISL,ioos:station:DISL:MHPA:1,2016-01-06T08:30:00Z,30.6671,-87.9365,1.168,0.09,1111122 
DISL,ioos:station:DISL:MHPA:1,2016-01-06T09:00:00Z,30.6671,-87.9365,1.147,0.09,1111122 
DISL,ioos:station:DISL:MHPA:1,2016-01-06T09:30:00Z,30.6671,-87.9365,1.119,0.09,1111122 
DISL,ioos:station:DISL:MHPA:1,2016-01-06T10:00:00Z,30.6671,-87.9365,1.101,0.09,1111122 
DISL,ioos:station:DISL:MHPA:1,2016-01-06T10:30:00Z,30.6671,-87.9365,1.096,0.09,1111122 
DISL,ioos:station:DISL:MHPA:1,2016-01-06T11:00:00Z,30.6671,-87.9365,1.09,0.09,1111122 
DISL,ioos:station:DISL:MHPA:1,2016-01-06T11:30:00Z,30.6671,-87.9365,1.079,0.09,1111122 
DISL,ioos:station:DISL:MHPA:1,2016-01-06T12:00:00Z,30.6671,-87.9365,1.064,0.09,1111122 
DISL,ioos:station:DISL:MHPA:1,2016-01-06T12:30:00Z,30.6671,-87.9365,1.051,0.09,1111122 
DISL,ioos:station:DISL:MHPA:1,2016-01-06T13:00:00Z,30.6671,-87.9365,1.036,0.09,1111122 
DISL,ioos:station:DISL:MHPA:1,2016-01-06T13:30:00Z,30.6671,-87.9365,1.023,0.09,1111122 
DISL,ioos:station:DISL:MHPA:1,2016-01-06T14:00:00Z,30.6671,-87.9365,1.022,0.09,1111122 
DISL,ioos:station:DISL:MHPA:1,2016-01-06T14:30:00Z,30.6671,-87.9365,1.021,0.09,1111122 
DISL,ioos:station:DISL:MHPA:1,2016-01-06T15:00:00Z,30.6671,-87.9365,1.017,0.09,1111122 
DISL,ioos:station:DISL:MHPA:1,2016-01-06T15:30:00Z,30.6671,-87.9365,1.022,0.09,1111122 
DISL,ioos:station:DISL:MHPA:1,2016-01-06T16:00:00Z,30.6671,-87.9365,1.038,0.09,1111122 